Change the Weather History Date:

Wednesday, December 5, 2012

  Actual Average (KABI) Record (KABI)
Temperature  
Mean Temperature 52 °F 47 °F  
Max Temperature 71 °F 59 °F 81 °F (1951)
Min Temperature 32 °F 35 °F 9 °F (1886)
Degree Days  
Heating Degree Days 14 18  
Month to date heating degree days 87  
Since 1 July heating degree days 520  
Cooling Degree Days 0 0  
Month to date cooling degree days 0  
Year to date cooling degree days 2408  
Growing Degree Days 2 (Base 50)    
Moisture  
Dew Point 22 °F    
Average Humidity 35    
Maximum Humidity 70    
Minimum Humidity 9    
Precipitation  
Precipitation 0.00 in 0.04 in 0.66 in (1943)
Month to date precipitation 0.19  
Year to date precipitation 23.78  
Sea Level Pressure  
Sea Level Pressure 30.18 in    
Wind  
Wind Speed 4 mph (ESE)    
Max Wind Speed 8 mph    
Max Gust Speed -    
Visibility 10 miles    
Events      
T = Trace of Precipitation, MM = Missing Value Source: NWS Daily Summary

Daily Weather History Graph

Daily Weather History Graph

Search for Another Location

Airport or City:

Trip Planner

Search our weather history database for the weather conditions in past years. The results will help you decide how hot, cold, wet, or windy it might be!

Date:

Astronomy

Dec. 05, 2012 Rise Set
Actual Time 7:21 AM CST 5:31 PM CST
Civil Twilight 6:54 AM CST 5:58 PM CST
Nautical Twilight 6:24 AM CST 6:28 PM CST
Astronomical Twilight 5:55 AM CST 6:58 PM CST
Moon No Moon Rise 12:02 PM CST (12/5)
Length of Visible Light 11h 03m
Length of Day
10h 10m
Waning Gibbous, 59% of the Moon is Illuminated
Dec 5
Waning Gibbous
Dec 6
Last Quarter
Dec 13
New
Dec 19
First Quarter
Dec 28
Full

Hourly Weather History & Observations

Time (CST) Temp. Windchill Dew Point Humidity Pressure Visibility Wind Dir Wind Speed Gust Speed Precip Events Conditions
12:15 AM 48.2 °F - 23.0 °F 37% 30.29 in 10.0 mi NW 6.9 mph - N/A   Overcast
12:35 AM 48.2 °F - 23.0 °F 37% 30.29 in 10.0 mi NNW 8.1 mph - N/A   Overcast
12:55 AM 46.4 °F 42.4 °F 24.8 °F 43% 30.29 in 10.0 mi NNW 8.1 mph - N/A   Mostly Cloudy
1:15 AM 46.4 °F 42.4 °F 24.8 °F 43% 30.29 in 10.0 mi NW 8.1 mph - N/A   Mostly Cloudy
1:35 AM 46.4 °F 42.4 °F 26.6 °F 46% 30.29 in 10.0 mi NNW 8.1 mph - N/A   Overcast
1:55 AM 46.4 °F 43.5 °F 24.8 °F 43% 30.29 in 10.0 mi NNW 5.8 mph - N/A   Overcast
2:15 AM 46.4 °F 43.5 °F 24.8 °F 43% 30.29 in 10.0 mi NNW 5.8 mph - N/A   Overcast
2:35 AM 44.6 °F 41.4 °F 24.8 °F 46% 30.29 in 10.0 mi NNW 5.8 mph - N/A   Overcast
2:55 AM 37.4 °F - 24.8 °F 60% 30.29 in 10.0 mi Calm Calm - N/A   Overcast
3:15 AM 37.4 °F - 24.8 °F 60% 30.29 in 10.0 mi Calm Calm - N/A   Overcast
3:35 AM 39.2 °F 37.0 °F 23.0 °F 52% 30.29 in 10.0 mi North 3.5 mph - N/A   Overcast
3:55 AM 33.8 °F 30.8 °F 24.8 °F 70% 30.28 in 10.0 mi ENE 3.5 mph - N/A   Overcast
4:15 AM 35.6 °F - 24.8 °F 65% 30.28 in 10.0 mi Calm Calm - N/A   Mostly Cloudy
4:35 AM 37.4 °F 32.8 °F 23.0 °F 56% 30.28 in 10.0 mi NW 5.8 mph - N/A   Mostly Cloudy
4:55 AM 41.0 °F 35.8 °F 24.8 °F 53% 30.28 in 10.0 mi NNW 8.1 mph - N/A   Mostly Cloudy
5:15 AM 35.6 °F - 23.0 °F 60% 30.28 in 10.0 mi Calm Calm - N/A   Mostly Cloudy
5:35 AM 35.6 °F - 23.0 °F 60% 30.29 in 10.0 mi Calm Calm - N/A   Scattered Clouds
5:55 AM 35.6 °F - 23.0 °F 60% 30.29 in 10.0 mi Calm Calm - N/A   Scattered Clouds
6:15 AM 33.8 °F - 23.0 °F 65% 30.29 in 10.0 mi Calm Calm - N/A   Partly Cloudy
6:35 AM 32.0 °F - 23.0 °F 69% 30.29 in 10.0 mi Calm Calm - N/A   Scattered Clouds
6:55 AM 33.8 °F - 23.0 °F 65% 30.29 in 10.0 mi Calm Calm - N/A   Partly Cloudy
8:35 AM 44.6 °F 42.2 °F 26.6 °F 49% 30.30 in 10.0 mi NNW 4.6 mph - N/A   Clear
8:55 AM 46.4 °F - 26.6 °F 46% 30.30 in 10.0 mi Calm Calm - N/A   Clear
9:15 AM 50.0 °F - 28.4 °F 43% 30.30 in 10.0 mi WNW 3.5 mph - N/A   Clear
9:35 AM 51.8 °F - 26.6 °F 38% 30.29 in 10.0 mi NW 3.5 mph - N/A   Clear
9:55 AM 53.6 °F - 26.6 °F 35% 30.29 in 10.0 mi Calm Calm - N/A   Clear
10:35 AM 57.2 °F - 28.4 °F 33% 30.29 in 10.0 mi Calm Calm - N/A   Clear
10:55 AM 59.0 °F - 26.6 °F 29% 30.28 in 10.0 mi Calm Calm - N/A   Clear
11:15 AM 60.8 °F - 26.6 °F 27% 30.27 in 10.0 mi Calm Calm - N/A   Clear
11:35 AM 62.6 °F - 24.8 °F 24% 30.26 in 10.0 mi Calm Calm - N/A   Clear
11:55 AM 62.6 °F - 23.0 °F 22% 30.24 in 7.0 mi Calm Calm - N/A   Clear
12:15 PM 64.4 °F - 19.4 °F 18% 30.22 in 10.0 mi Calm Calm - N/A   Clear
12:35 PM 64.4 °F - 12.2 °F 13% 30.20 in 10.0 mi Calm Calm - N/A   Clear
12:55 PM 66.2 °F - 15.8 °F 14% 30.18 in 10.0 mi Calm Calm - N/A   Clear
1:15 PM 66.2 °F - 14.0 °F 13% 30.17 in 10.0 mi Calm Calm - N/A   Clear
1:35 PM 68.0 °F - 12.2 °F 12% 30.15 in 10.0 mi SE 3.5 mph - N/A   Clear
1:55 PM 68.0 °F - 8.6 °F 10% 30.14 in 10.0 mi SE 5.8 mph - N/A   Clear
2:15 PM 68.0 °F - 10.4 °F 11% 30.13 in 10.0 mi Calm Calm - N/A   Clear
2:35 PM 69.8 °F - 10.4 °F 10% 30.11 in 10.0 mi Calm Calm - N/A   Clear
2:55 PM 69.8 °F - 10.4 °F 10% 30.10 in 10.0 mi SSE 5.8 mph - N/A   Clear
3:15 PM 71.6 °F - 10.4 °F 9% 30.10 in 10.0 mi Calm Calm - N/A   Clear
3:35 PM 71.6 °F - 14.0 °F 11% 30.10 in 10.0 mi South 3.5 mph - N/A   Clear
3:55 PM 71.6 °F - 12.2 °F 10% 30.09 in 10.0 mi SSE 5.8 mph - N/A   Clear
4:15 PM 71.6 °F - 14.0 °F 11% 30.08 in 10.0 mi SSE 6.9 mph - N/A   Clear
4:35 PM 69.8 °F - 17.6 °F 14% 30.08 in 10.0 mi SSE 6.9 mph - N/A   Clear
4:55 PM 68.0 °F - 19.4 °F 16% 30.08 in 10.0 mi South 5.8 mph - N/A   Clear
5:15 PM 66.2 °F - 19.4 °F 17% 30.07 in 10.0 mi South 4.6 mph - N/A   Clear
5:35 PM 66.2 °F - 17.6 °F 15% 30.08 in 10.0 mi South 3.5 mph - N/A   Clear
5:55 PM 59.0 °F - 21.2 °F 23% 30.07 in 10.0 mi SSE 5.8 mph - N/A   Clear
6:15 PM 57.2 °F - 21.2 °F 25% 30.07 in 10.0 mi SE 5.8 mph - N/A   Clear
6:35 PM 55.4 °F - 19.4 °F 25% 30.08 in 10.0 mi East 5.8 mph - N/A   Clear
6:55 PM 57.2 °F - 23.0 °F 27% 30.08 in 10.0 mi SE 4.6 mph - N/A   Clear
7:15 PM 55.4 °F - 23.0 °F 29% 30.08 in 10.0 mi East 4.6 mph - N/A   Clear
7:35 PM 53.6 °F - 23.0 °F 30% 30.07 in 10.0 mi ESE 6.9 mph - N/A   Clear
7:55 PM 53.6 °F - 23.0 °F 30% 30.07 in 10.0 mi ESE 8.1 mph - N/A   Clear
8:15 PM 53.6 °F - 23.0 °F 30% 30.08 in 10.0 mi Calm Calm - N/A   Clear
8:55 PM 53.6 °F - 23.0 °F 30% 30.07 in 10.0 mi Calm Calm - N/A   Clear
9:15 PM 46.4 °F - 23.0 °F 40% 30.07 in 10.0 mi Calm Calm - N/A   Clear
9:35 PM 50.0 °F - 23.0 °F 35% 30.07 in 10.0 mi Calm Calm - N/A   Clear
9:55 PM 44.6 °F - 23.0 °F 43% 30.06 in 10.0 mi Calm Calm - N/A   Clear
10:15 PM 42.8 °F 40.1 °F 23.0 °F 46% 30.06 in 10.0 mi ESE 4.6 mph - N/A   Clear
10:35 PM 44.6 °F - 23.0 °F 43% 30.05 in 10.0 mi Calm Calm - N/A   Clear
10:55 PM 48.2 °F - 26.6 °F 43% 30.05 in 10.0 mi Calm Calm - N/A   Clear
11:15 PM 44.6 °F - 24.8 °F 46% 30.04 in 10.0 mi Calm Calm - N/A   Clear
11:35 PM 41.0 °F - 21.2 °F 45% 30.03 in 10.0 mi Calm Calm - N/A   Clear
11:55 PM 42.8 °F - 26.6 °F 53% 30.02 in 10.0 mi Calm Calm - N/A   Clear